Location: Caltech
(34.1382°N, 118.1253°W)
Time: 07:49:14
(UTC-08:00)

Transit 2A - Visible Passes

Search period start: 25 February 2017 00:00
Search period end: 07 March 2017 00:00
Orbit: 601 x 958 km, 66.7° (Epoch: 25 February)

Date Brightness Start Highest point End Pass type
(mag) Time Alt. Az. Time Alt. Az. Time Alt. Az.
01 Mar 8.4 20:28:28 10° NNW 20:28:30 10° NNW 20:28:30 10° NNW visible
02 Mar 7.7 19:54:42 10° N 19:55:51 17° N 19:55:51 17° N visible
03 Mar 7.2 19:21:09 10° N 19:23:19 20° NNE 19:23:19 20° NNE visible
04 Mar 7.3 18:47:54 10° NNE 18:50:30 15° NE 18:50:53 15° ENE visible
04 Mar 7.7 20:29:35 10° NW 20:31:26 23° NW 20:31:26 23° NW visible
05 Mar 6.0 19:55:27 10° NNW 19:59:09 61° NW 19:59:09 61° NW visible
06 Mar 5.5 19:21:30 10° NNW 19:25:51 66° ENE 19:27:03 46° SE visible
